Погода в Красном Октябре

Россия / Белгородская область     50°27′14″N   36°20′32″E
темп.,
°C
ветер,
м/с
пор.,
м/с
влажн.,
%
обл.,
%
осадки,
мм/ч
давл.,
гПа
погр.,
м
28 июля, ср
ср2800:00+20ююв23435 0.0 101917
03:00+19ююв334713 0.0 101828
06:00+18юв335195 0.0 101744
09:00+26ююв453866 0.0 1017442
12:00+30ююз4528100 0.0 10152341
15:00+32ююз562799 0.0 10132962
18:00+26ююз5115016 0.3 1012316
21:00+21в3382100 2.6 101236
29 июля, чт
чт2900:00+19зюз35907 0.8 101295
03:00+17зюз34910 0.8 101264
06:00+18зюз23925 0.0 101269
09:00+25з236511 0.0 1012418
12:00+30юз344221 0.0 10112137
15:00+31сз243348 0.0 10102039
18:00+32ссз233358 0.0 10082194
21:00+26в344623 0.0 100849
30 июля, пт
пт3000:00+22зюз510646 0.0 1009188
03:00+20юз358023 0.0 100892
06:00+19юз3682100 0.0 1008150
09:00+24зюз356990 0.1 1008508
12:00+30зюз454971 0.0 10071344
15:00+30зюз7843100 0.0 10072128
18:00+26ссз366046 0.2 1008522
21:00+24с366693 0.2 1009187
31 июля, сб
сб3100:00+22с24708 0.0 1010101
03:00+20с117653 0.0 101012
06:00+20сз11770 0.0 101011
09:00+26сз23500 0.0 1011655
12:00+30з22340 0.0 10112185
15:00+32з23274 0.0 10102804
18:00+31зсз222811 0.0 10102742
21:00+24св34451 0.0 101045
1 августа, вс
вс100:00+22ююв36540 0.0 101178
03:00+20юв35580 0.0 101179
06:00+20ю34630 0.0 101156
09:00+28ю45390 0.0 1010511
12:00+33юз5627100 0.0 10102727
15:00+34зюз452492 0.0 10092975
18:00+33з4529100 0.0 10082200
21:00+26сз23470 0.0 100918